Date String (YYYY-MM-DD hh:mm:ss) UTC,Instrument flags,absolute air pressure of the measurement (hPa),sample flow rate (lpm),inlet stack bypass flow (lpm),air temperature of the measurement (°C),ambient temperature measured by the external sensor (°C),aerosol sample conditioner tube jacket temperature (°C),OPC LED temperature (°C),internal box temperature (°C),relative humidity of the measurement (%),span deviation,mass concentration of particles derived from Lorenz-Mie calculation of OPC scattering (μg/m³),mass concentration of particles derived from Lorenz-Mie calculation of OPC scattering (μg/m³),mass concentration of particles derived from Lorenz-Mie calculation of OPC scattering (μg/m³)
DateTimeUTC,F1_M11,P_M11,Q1_M11,Q2_M11,T1_M11,T2_M11,T3_M11,T4_M11,T5_M11,U1_M11,ZSPAN_M11,X0_M11,X2_M11,X1_M11
2024-05-08 17:00:00,SystemResetWarning,0819.8,5.00,000.00,021.6,021.0,000.0,029.6,023.2,009.4,0000.0,0004.54,0001.04,0000.54
2024-05-08 17:01:00,SystemResetWarning,0819.7,5.00,000.00,021.6,021.0,000.0,029.6,023.2,009.2,0000.0,0004.60,0001.07,0000.54
2024-05-08 17:02:00,SystemResetWarning,0820.0,5.00,000.00,021.6,021.0,000.0,029.6,023.2,008.9,0000.0,0004.53,0001.07,0000.54
2024-05-08 17:03:00,SystemResetWarning,0820.1,5.01,000.00,021.6,021.0,000.0,029.6,023.2,009.0,0000.0,0004.52,0001.07,0000.54
2024-05-08 17:04:00,SystemResetWarning,0820.0,5.00,000.00,021.6,021.0,000.0,029.6,023.2,009.3,0000.0,0004.13,0001.05,0000.53
2024-05-08 17:05:00,SystemResetWarning,0819.8,5.00,000.00,021.6,021.0,000.0,029.6,023.2,009.3,0000.0,0004.05,0001.06,0000.54
2024-05-08 17:06:00,SystemResetWarning,0820.0,5.01,000.00,021.6,021.0,000.0,029.6,023.3,009.1,0000.0,0004.18,0001.02,0000.53
2024-05-08 17:07:00,SystemResetWarning,0819.8,5.01,000.00,021.6,021.0,000.0,029.6,023.3,009.2,0000.0,0003.77,0000.94,0000.52
2024-05-08 17:08:00,SystemResetWarning,0820.2,5.00,000.00,021.6,021.0,000.0,029.6,023.3,009.3,0000.0,0003.79,0000.95,0000.52
2024-05-08 17:09:00,SystemResetWarning,0820.1,5.00,000.00,021.6,021.0,000.0,029.7,023.3,009.3,0000.0,0003.81,0000.98,0000.52
2024-05-08 17:10:00,SystemResetWarning,0820.2,5.00,000.00,021.6,021.0,000.0,029.7,023.3,009.4,0000.0,0003.80,0001.03,0000.52
2024-05-08 17:11:00,SystemResetWarning,0820.0,5.00,000.00,021.7,021.1,000.0,029.7,023.3,009.2,0000.0,0002.28,0000.99,0000.52
2024-05-08 17:12:00,SystemResetWarning,0820.0,5.00,000.00,021.7,021.1,000.0,029.7,023.3,009.1,0000.0,0002.20,0000.93,0000.52
2024-05-08 17:13:00,SystemResetWarning,0819.9,4.99,000.00,021.7,021.1,000.0,029.7,023.3,009.1,0000.0,0002.27,0000.94,0000.52
2024-05-08 17:14:00,SystemResetWarning,0819.9,4.99,000.00,021.7,021.1,000.0,029.7,023.3,009.2,0000.0,0002.63,0000.94,0000.51
2024-05-08 17:15:00,SystemResetWarning,0819.9,5.00,000.00,021.7,021.1,000.0,029.7,023.4,009.3,0000.0,0002.57,0000.93,0000.51
2024-05-08 17:16:00,SystemResetWarning,0820.1,5.01,000.00,021.7,021.1,000.0,029.7,023.4,009.1,0000.0,0002.56,0000.92,0000.50
2024-05-08 17:17:00,SystemResetWarning,0820.0,5.00,000.00,021.7,021.1,000.0,029.7,023.4,009.0,0000.0,0002.38,0000.92,0000.50
2024-05-08 17:18:00,SystemResetWarning,0820.0,4.99,000.00,021.7,021.1,000.0,029.7,023.4,009.2,0000.0,0002.28,0000.96,0000.49
2024-05-08 17:19:00,SystemResetWarning,0820.1,5.00,000.00,021.7,021.1,000.0,029.7,023.4,009.1,0000.0,0002.31,0000.97,0000.49
2024-05-08 17:20:00,SystemResetWarning,0820.0,5.01,000.00,021.7,021.2,000.0,029.8,023.4,009.3,0000.0,0002.38,0001.00,0000.49
2024-05-08 17:21:00,SystemResetWarning,0820.1,5.01,000.00,021.7,021.2,000.0,029.8,023.4,009.4,0000.0,0002.29,0000.94,0000.48
2024-05-08 17:22:00,SystemResetWarning,0820.0,5.01,000.00,021.8,021.2,000.0,029.8,023.4,009.5,0000.0,0002.28,0000.95,0000.48
2024-05-08 17:23:00,SystemResetWarning,0820.1,5.00,000.00,021.8,021.2,000.0,029.8,023.4,009.1,0000.0,0002.26,0000.96,0000.47
2024-05-08 17:24:00,SystemResetWarning,0820.1,5.00,000.00,021.8,021.2,000.0,029.8,023.5,008.8,0000.0,0002.42,0000.96,0000.46
2024-05-08 17:25:00,SystemResetWarning,0820.1,5.00,000.00,021.8,021.2,000.0,029.8,023.4,009.0,0000.0,0002.21,0000.94,0000.45
2024-05-08 17:26:00,SystemResetWarning,0820.1,5.00,000.00,021.8,021.2,000.0,029.8,023.5,009.4,0000.0,0002.24,0000.97,0000.45
2024-05-08 17:27:00,SystemResetWarning,0820.0,4.99,000.00,021.8,021.2,000.0,029.8,023.5,009.1,0000.0,0002.25,0000.97,0000.45
2024-05-08 17:28:00,SystemResetWarning,0820.1,5.00,000.00,021.8,021.3,000.0,029.8,023.5,009.2,0000.0,0002.20,0000.96,0000.45
2024-05-08 17:29:00,SystemResetWarning,0820.1,5.00,000.00,021.8,021.3,000.0,029.8,023.5,009.2,0000.0,0002.19,0000.95,0000.45
2024-05-08 17:30:00,SystemResetWarning,0820.1,5.00,000.00,021.9,021.3,000.0,029.9,023.5,009.4,0000.0,0002.23,0000.95,0000.45
2024-05-08 17:31:00,SystemResetWarning,0820.0,5.00,000.00,021.9,021.3,000.0,029.9,023.5,009.1,0000.0,0002.16,0000.91,0000.44
2024-05-08 17:32:00,SystemResetWarning,0820.1,5.01,000.00,021.9,021.3,000.0,029.9,023.5,008.8,0000.0,0002.26,0000.93,0000.43
2024-05-08 17:33:00,SystemResetWarning,0820.1,5.00,000.00,021.9,021.3,000.0,029.9,023.5,008.9,0000.0,0002.25,0000.92,0000.43
2024-05-08 17:34:00,SystemResetWarning,0820.1,5.00,000.00,021.9,021.3,000.0,029.9,023.6,008.7,0000.0,0002.31,0000.94,0000.43
2024-05-08 17:35:00,SystemResetWarning,0820.1,5.00,000.00,021.9,021.3,000.0,029.9,023.6,008.8,0000.0,0002.20,0000.95,0000.43
2024-05-08 17:36:00,SystemResetWarning,0820.3,5.00,000.00,021.9,021.4,000.0,029.9,023.6,009.1,0000.0,0002.07,0000.96,0000.44
2024-05-08 17:37:00,SystemResetWarning,0820.1,5.01,000.00,021.9,021.4,000.0,029.9,023.6,009.2,0000.0,0002.05,0000.94,0000.44
2024-05-08 17:38:00,SystemResetWarning,0820.0,5.00,000.00,022.0,021.4,000.0,030.0,023.7,009.3,0000.0,0002.16,0000.94,0000.44
2024-05-08 17:39:00,SystemResetWarning,0820.1,5.01,000.00,022.0,021.4,000.0,030.0,023.7,009.3,0000.0,0002.27,0000.98,0000.44
2024-05-08 17:40:00,SystemResetWarning,0820.1,5.01,000.00,022.0,021.4,000.0,030.0,023.7,009.6,0000.0,0002.35,0000.97,0000.43
2024-05-08 17:41:00,SystemResetWarning,0820.1,5.00,000.00,022.0,021.4,000.0,030.0,023.7,009.5,0000.0,0002.28,0000.94,0000.43
2024-05-08 17:42:00,SystemResetWarning,0820.1,5.00,000.00,022.0,021.4,000.0,030.0,023.7,009.5,0000.0,0002.30,0000.96,0000.44
2024-05-08 17:43:00,SystemResetWarning,0820.1,5.01,000.00,022.0,021.4,000.0,030.0,023.7,009.1,0000.0,0002.53,0000.94,0000.44
2024-05-08 17:44:00,SystemResetWarning,0820.1,4.99,000.00,022.0,021.4,000.0,030.0,023.7,009.1,0000.0,0002.48,0000.90,0000.44
2024-05-08 17:45:00,SystemResetWarning,0820.3,5.00,000.00,022.0,021.4,000.0,030.0,023.7,009.5,0000.0,0002.39,0000.88,0000.43
2024-05-08 17:46:00,SystemResetWarning,0820.3,5.00,000.00,022.0,021.4,000.0,030.0,023.7,009.7,0000.0,0002.36,0000.87,0000.43
2024-05-08 17:47:00,SystemResetWarning,0820.1,4.99,000.00,022.0,021.4,000.0,030.0,023.7,009.6,0000.0,0002.28,0000.84,0000.42
2024-05-08 17:48:00,SystemResetWarning,0820.1,4.99,000.00,022.0,021.4,000.0,030.1,023.7,009.3,0000.0,0002.33,0000.86,0000.42
2024-05-08 17:49:00,SystemResetWarning,0820.1,4.99,000.00,022.0,021.5,000.0,030.1,023.7,009.3,0000.0,0002.72,0000.87,0000.42
2024-05-08 17:50:00,SystemResetWarning,0820.2,5.00,000.00,022.0,021.5,000.0,030.1,023.7,009.2,0000.0,0003.37,0000.84,0000.42
2024-05-08 17:51:00,SystemResetWarning,0820.2,5.00,000.00,022.0,021.5,000.0,030.1,023.8,009.4,0000.0,0003.32,0000.83,0000.42
2024-05-08 17:52:00,SystemResetWarning,0820.2,5.00,000.00,022.1,021.5,000.0,030.1,023.8,009.5,0000.0,0003.22,0000.83,0000.42
2024-05-08 17:53:00,SystemResetWarning,0820.3,5.01,000.00,022.1,021.5,000.0,030.1,023.7,009.4,0000.0,0003.14,0000.80,0000.42
2024-05-08 17:54:00,SystemResetWarning,0820.3,5.01,000.00,022.1,021.5,000.0,030.1,023.8,009.4,0000.0,0003.01,0000.79,0000.41
2024-05-08 17:55:00,SystemResetWarning,0820.1,5.00,000.00,022.1,021.5,000.0,030.1,023.8,009.6,0000.0,0002.75,0000.79,0000.41
2024-05-08 17:56:00,SystemResetWarning,0820.2,5.00,000.00,022.1,021.5,000.0,030.1,023.8,009.3,0000.0,0002.78,0000.78,0000.41
2024-05-08 17:57:00,SystemResetWarning,0820.3,5.00,000.00,022.1,021.5,000.0,030.2,023.8,009.2,0000.0,0002.85,0000.76,0000.41
2024-05-08 17:58:00,SystemResetWarning,0820.3,5.00,000.00,022.1,021.5,000.0,030.2,023.8,009.1,0000.0,0002.83,0000.75,0000.42
2024-05-08 17:59:00,SystemResetWarning,0820.4,4.99,000.00,022.1,021.5,000.0,030.2,023.8,009.3,0000.0,0002.77,0000.73,0000.41
